Weather History for KIPL - December, 2013

Change the Weather History Date:

Monday, December 2, 2013

  Actual Average Record
Temperature  
Mean Temperature 60 °F -  
Max Temperature 73 °F 72 °F 85 °F (1949)
Min Temperature 46 °F 44 °F 33 °F (1991)
Degree Days  
Heating Degree Days 6    
Growing Degree Days 10 (Base 50)    
Moisture  
Dew Point 38 °F    
Average Humidity 48    
Maximum Humidity 74    
Minimum Humidity 25    
Precipitation  
Precipitation 0.00 in - - ()
Sea Level Pressure  
Sea Level Pressure 29.98 in    
Wind  
Wind Speed 3 mph (WSW)    
Max Wind Speed 6 mph    
Max Gust Speed -    
Visibility 10 miles    
Events      
Averages and records for this station are not official NWS values.
T = Trace of Precipitation, MM = Missing Value Source: NWS Daily Summary

Daily Weather History Graph

Daily Weather History Graph

Search for Another Location

Airport or City:

Trip Planner

Search our weather history database for the weather conditions in past years. The results will help you decide how hot, cold, wet, or windy it might be!

Date:

Astronomy

Dec. 02, 2013 Rise Set
Actual Time 6:27 AM PST 4:35 PM PST
Civil Twilight 6:00 AM PST 5:02 PM PST
Nautical Twilight 5:30 AM PST 5:33 PM PST
Astronomical Twilight 5:00 AM PST 6:03 PM PST
Moon 5:59 AM PST (12/2) 4:41 PM PST (12/2)
Length of Visible Light 11h 01m
Length of Day
10h 07m
Waning Crescent, 0% of the Moon is Illuminated
Dec 2
Waning Crescent
Dec 2
New
Dec 9
First Quarter
Dec 17
Full
Dec 25
Last Quarter

Hourly Weather History & Observations

Time (PST) Temp. Windchill Dew Point Humidity Pressure Visibility Wind Dir Wind Speed Gust Speed Precip Events Conditions
12:53 AM 52.0 °F - 34.0 °F 50% 30.10 in 10.0 mi WSW 4.6 mph - N/A   Clear
1:53 AM 51.1 °F - 33.1 °F 50% 30.09 in 10.0 mi West 4.6 mph - N/A   Clear
2:53 AM 48.0 °F - 34.0 °F 58% 30.07 in 10.0 mi WSW 4.6 mph - N/A   Clear
3:53 AM 46.9 °F - 34.0 °F 61% 30.07 in 10.0 mi WNW 3.5 mph - N/A   Clear
4:53 AM 46.9 °F - 32.0 °F 56% 30.07 in 10.0 mi West 5.8 mph - N/A   Clear
5:53 AM 46.0 °F 43.1 °F 33.1 °F 61% 30.07 in 10.0 mi SSW 5.8 mph - N/A   Clear
6:53 AM 46.0 °F 43.9 °F 33.1 °F 61% 30.09 in 10.0 mi WSW 4.6 mph - N/A   Clear
7:53 AM 51.1 °F - 35.1 °F 54% 30.09 in 10.0 mi Calm Calm - N/A   Clear
8:53 AM 59.0 °F - 36.0 °F 42% 30.09 in 10.0 mi Calm Calm - N/A   Clear
9:53 AM 64.9 °F - 39.9 °F 40% 30.08 in 10.0 mi Calm Calm - N/A   Clear
10:53 AM 66.9 °F - 37.0 °F 33% 30.05 in 10.0 mi South 4.6 mph - N/A   Clear
11:53 AM 68.0 °F - 42.1 °F 39% 30.01 in 10.0 mi Calm Calm - N/A   Clear
12:53 PM 70.0 °F - 44.1 °F 39% 29.97 in 10.0 mi Calm Calm - N/A   Clear
1:53 PM 72.0 °F - 39.0 °F 30% 29.94 in 10.0 mi Calm Calm - N/A   Clear
2:53 PM 73.0 °F - 35.1 °F 25% 29.91 in 10.0 mi Variable 3.5 mph - N/A   Clear
3:53 PM 71.1 °F - 37.9 °F 30% 29.90 in 10.0 mi East 3.5 mph - N/A   Clear
4:53 PM 66.9 °F - 43.0 °F 42% 29.89 in 10.0 mi Calm Calm - N/A   Clear
5:53 PM 64.0 °F - 42.1 °F 45% 29.88 in 10.0 mi Calm Calm - N/A   Clear
6:53 PM 63.0 °F - 41.0 °F 45% 29.87 in 10.0 mi ESE 3.5 mph - N/A   Clear
7:53 PM 61.0 °F - 42.1 °F 50% 29.88 in 10.0 mi Calm Calm - N/A   Clear
8:53 PM 57.9 °F - 44.1 °F 60% 29.86 in 10.0 mi Calm Calm - N/A   Clear
9:53 PM 59.0 °F - 42.1 °F 53% 29.84 in 10.0 mi Calm Calm - N/A   Clear
10:53 PM 55.0 °F - 43.0 °F 64% 29.83 in 10.0 mi NW 3.5 mph - N/A   Clear
11:53 PM 52.0 °F - 44.1 °F 74% 29.81 in 10.0 mi Calm Calm - N/A   Clear